RYR84KM EGGW-LEMI

Flight info

Callsign RYR84KM
Flight time N/A
Altitude 33000
Route RODNI N27 ICTAM Q63 CPT N859 VAPID UN859 SOPIL DCT BALAN DCT LMG DCT PIMQO DCT AGN DCT ANETO DCT POSSY DCT XIMPE DCT RIMES N860 VLC L34 ALT
Aircraft B738/M-SDE2E3FGHIRWXY/LB1

Departure

Time N/A
Airport London Luton Airport (EGGW)

Arrival

Time 2026-04-15 12:43
Airport Region of Murcia International Airport (LEMI)
Time Latitude Longitude Altitude Speed Heading
2026-04-15 11:49 42.16369 0.22158 37156 ft 439 kts 210°
2026-04-15 11:49 42.13606 0.20418 37158 ft 438 kts 210°
2026-04-15 11:50 42.08115 0.16979 37167 ft 439 kts 208°
2026-04-15 11:50 42.02143 0.14923 37178 ft 450 kts 191°
2026-04-15 11:51 41.95904 0.14047 37162 ft 451 kts 190°
2026-04-15 11:51 41.89694 0.13204 37181 ft 452 kts 191°
2026-04-15 11:52 41.83435 0.12299 37177 ft 453 kts 191°
2026-04-15 11:52 41.77162 0.11364 37169 ft 454 kts 191°
2026-04-15 11:53 41.70868 0.10422 37175 ft 455 kts 191°
2026-04-15 11:53 41.64604 0.09487 37175 ft 457 kts 191°
2026-04-15 11:54 41.58276 0.08546 37166 ft 458 kts 191°
2026-04-15 11:54 41.51934 0.07605 37159 ft 459 kts 191°
2026-04-15 11:55 41.45581 0.06665 37166 ft 460 kts 191°
2026-04-15 11:55 41.39259 0.05730 37161 ft 460 kts 191°
2026-04-15 11:56 41.32889 0.04791 37147 ft 461 kts 191°
2026-04-15 11:56 41.26517 0.03853 37168 ft 461 kts 191°
2026-04-15 11:57 41.16956 0.02449 37160 ft 461 kts 191°
2026-04-15 11:58 41.10618 0.01520 37158 ft 461 kts 191°
2026-04-15 11:58 41.04233 0.00589 37164 ft 462 kts 190°
2026-04-15 11:59 40.97849 -0.00337 37158 ft 462 kts 191°
2026-04-15 11:59 40.91462 -0.01262 37161 ft 461 kts 191°
2026-04-15 12:00 40.85138 -0.02177 37151 ft 460 kts 191°
2026-04-15 12:00 40.78771 -0.03096 37162 ft 459 kts 191°
2026-04-15 12:01 40.72421 -0.04011 37170 ft 459 kts 191°
2026-04-15 12:01 40.66075 -0.04925 37159 ft 459 kts 191°
2026-04-15 12:02 40.59779 -0.05829 37173 ft 458 kts 191°
2026-04-15 12:02 40.53519 -0.07114 37180 ft 452 kts 201°
2026-04-15 12:03 40.47529 -0.09548 37208 ft 450 kts 202°
2026-04-15 12:03 40.41548 -0.12014 37218 ft 451 kts 202°
2026-04-15 12:04 40.35575 -0.14386 37230 ft 452 kts 201°
2026-04-15 12:04 40.29550 -0.16749 37230 ft 452 kts 201°
2026-04-15 12:05 40.23526 -0.19115 37223 ft 453 kts 202°
2026-04-15 12:05 40.17489 -0.21503 37220 ft 453 kts 202°
2026-04-15 12:06 40.11482 -0.23877 37197 ft 455 kts 202°
2026-04-15 12:06 40.05412 -0.26271 37161 ft 456 kts 202°
2026-04-15 12:07 39.99328 -0.28663 37155 ft 457 kts 201°
2026-04-15 12:07 39.93216 -0.31019 37167 ft 459 kts 201°
2026-04-15 12:08 39.87130 -0.33360 37165 ft 459 kts 201°
2026-04-15 12:08 39.81005 -0.35744 37174 ft 460 kts 201°
2026-04-15 12:09 39.74873 -0.38133 37183 ft 460 kts 201°
2026-04-15 12:09 39.68728 -0.40518 37188 ft 461 kts 201°
2026-04-15 12:10 39.62616 -0.42886 37182 ft 462 kts 201°
2026-04-15 12:10 39.56453 -0.45270 37179 ft 462 kts 201°
2026-04-15 12:11 39.50296 -0.47641 37158 ft 462 kts 200°
2026-04-15 12:11 39.43929 -0.48831 37174 ft 469 kts 187°
2026-04-15 12:12 39.37404 -0.49214 37165 ft 469 kts 186°
2026-04-15 12:12 39.30879 -0.49603 37157 ft 469 kts 186°
2026-04-15 12:13 39.24369 -0.50048 37167 ft 468 kts 187°
2026-04-15 12:13 39.17867 -0.50517 37172 ft 468 kts 187°
2026-04-15 12:14 39.11411 -0.50985 37179 ft 468 kts 187°
2026-04-15 12:14 39.04918 -0.51453 37208 ft 467 kts 187°
2026-04-15 12:15 38.98427 -0.51919 37227 ft 467 kts 187°
2026-04-15 12:15 38.91932 -0.52384 37248 ft 468 kts 187°
2026-04-15 12:16 38.85436 -0.52848 37251 ft 468 kts 187°
2026-04-15 12:16 38.78987 -0.53308 37264 ft 468 kts 187°
2026-04-15 12:17 38.72483 -0.53771 37254 ft 468 kts 187°
2026-04-15 12:17 38.65956 -0.54237 36673 ft 472 kts 187°
2026-04-15 12:17 38.62681 -0.54468 36172 ft 470 kts 186°
2026-04-15 12:18 38.59418 -0.54699 35623 ft 470 kts 186°
2026-04-15 12:18 38.56190 -0.54927 35063 ft 471 kts 186°
2026-04-15 12:18 38.52914 -0.55159 34487 ft 472 kts 186°
2026-04-15 12:18 38.49626 -0.55393 33822 ft 474 kts 186°
2026-04-15 12:19 38.46330 -0.55626 33159 ft 475 kts 186°
2026-04-15 12:19 38.43026 -0.55858 32506 ft 476 kts 186°
2026-04-15 12:19 38.39717 -0.56092 31854 ft 476 kts 186°
2026-04-15 12:19 38.36403 -0.56325 31210 ft 477 kts 186°
2026-04-15 12:20 38.33099 -0.56557 30741 ft 474 kts 186°
2026-04-15 12:20 38.29817 -0.56787 30263 ft 471 kts 186°
2026-04-15 12:20 38.26598 -0.57001 29717 ft 468 kts 185°
2026-04-15 12:20 38.23351 -0.57000 29194 ft 465 kts 181°
2026-04-15 12:21 38.20125 -0.56850 28699 ft 462 kts 180°
2026-04-15 12:21 38.16933 -0.56647 28208 ft 458 kts 179°
2026-04-15 12:21 38.13761 -0.56440 27721 ft 454 kts 179°
2026-04-15 12:21 38.10616 -0.56249 27245 ft 451 kts 179°
2026-04-15 12:22 38.07495 -0.56076 26771 ft 447 kts 179°
2026-04-15 12:22 38.04395 -0.55916 26301 ft 444 kts 180°
2026-04-15 12:22 38.01359 -0.55768 25840 ft 442 kts 180°
2026-04-15 12:22 37.98296 -0.55621 25376 ft 439 kts 179°
2026-04-15 12:23 37.95251 -0.55477 24907 ft 437 kts 179°
2026-04-15 12:23 37.92221 -0.55334 24439 ft 435 kts 179°
2026-04-15 12:23 37.89203 -0.55190 23959 ft 433 kts 179°
2026-04-15 12:23 37.86199 -0.55047 23447 ft 431 kts 179°
2026-04-15 12:24 37.83204 -0.54904 22942 ft 428 kts 179°
2026-04-15 12:24 37.80242 -0.54763 22464 ft 425 kts 179°
2026-04-15 12:24 37.77295 -0.54622 21999 ft 422 kts 179°
2026-04-15 12:24 37.74412 -0.54484 21550 ft 418 kts 179°
2026-04-15 12:25 37.71513 -0.54346 21099 ft 415 kts 179°
2026-04-15 12:25 37.68637 -0.54209 20650 ft 413 kts 179°
2026-04-15 12:25 37.65776 -0.54073 20207 ft 410 kts 179°
2026-04-15 12:25 37.62933 -0.53938 19767 ft 407 kts 179°
2026-04-15 12:26 37.60112 -0.53804 19330 ft 405 kts 179°
2026-04-15 12:26 37.57294 -0.53670 18875 ft 404 kts 179°
2026-04-15 12:26 37.54497 -0.53537 18451 ft 401 kts 178°
2026-04-15 12:26 37.51753 -0.53406 17960 ft 399 kts 178°
2026-04-15 12:27 37.48988 -0.53325 17494 ft 396 kts 185°
2026-04-15 12:27 37.46381 -0.54221 17062 ft 386 kts 212°
2026-04-15 12:27 37.44397 -0.56377 16654 ft 372 kts 239°
2026-04-15 12:27 37.43275 -0.59231 16268 ft 361 kts 255°
2026-04-15 12:28 37.42552 -0.62234 15819 ft 358 kts 258°
2026-04-15 12:28 37.41838 -0.65229 15376 ft 357 kts 257°
2026-04-15 12:28 37.41126 -0.68206 14941 ft 355 kts 258°
2026-04-15 12:28 37.40535 -0.71166 14512 ft 352 kts 262°
2026-04-15 12:29 37.40096 -0.74183 14073 ft 350 kts 265°
2026-04-15 12:29 37.39817 -0.77208 13586 ft 347 kts 269°
2026-04-15 12:29 37.39692 -0.80225 13136 ft 344 kts 272°
2026-04-15 12:29 37.39715 -0.83207 12702 ft 340 kts 276°
2026-04-15 12:30 37.39882 -0.86158 12276 ft 336 kts 279°
2026-04-15 12:30 37.40187 -0.89055 11867 ft 333 kts 283°
2026-04-15 12:30 37.40626 -0.91896 11459 ft 329 kts 286°
2026-04-15 12:30 37.41191 -0.94668 11055 ft 325 kts 289°
2026-04-15 12:31 37.41866 -0.97321 10797 ft 318 kts 292°
2026-04-15 12:31 37.42640 -0.99867 10640 ft 307 kts 296°
2026-04-15 12:31 37.43476 -1.02291 10509 ft 297 kts 298°
2026-04-15 12:31 37.44376 -1.04579 10383 ft 287 kts 301°
2026-04-15 12:32 37.45380 -1.06693 10250 ft 276 kts 312°
2026-04-15 12:32 37.46831 -1.08143 10089 ft 264 kts 336°
2026-04-15 12:32 37.48586 -1.08710 9806 ft 260 kts 356°
2026-04-15 12:32 37.50383 -1.08584 9399 ft 261 kts
2026-04-15 12:33 37.52154 -1.08934 8826 ft 265 kts 332°
2026-04-15 12:33 37.53360 -1.10597 8652 ft 259 kts 294°
2026-04-15 12:33 37.53533 -1.12867 8345 ft 273 kts 260°
2026-04-15 12:33 37.52690 -1.15034 8058 ft 277 kts 244°
2026-04-15 12:34 37.51981 -1.17244 7740 ft 270 kts 267°
2026-04-15 12:34 37.52087 -1.19532 7509 ft 258 kts 288°
2026-04-15 12:34 37.52674 -1.21648 7240 ft 254 kts 297°
2026-04-15 12:34 37.53379 -1.23697 6859 ft 258 kts 297°
2026-04-15 12:35 37.54073 -1.25757 6526 ft 259 kts 296°
2026-04-15 12:35 37.54819 -1.27821 6211 ft 258 kts 299°
2026-04-15 12:35 37.55657 -1.29816 5913 ft 257 kts 302°
2026-04-15 12:35 37.56583 -1.31721 5631 ft 252 kts 306°
2026-04-15 12:36 37.57573 -1.33512 5347 ft 247 kts 308°
2026-04-15 12:36 37.58597 -1.35197 5214 ft 238 kts 311°
2026-04-15 12:36 37.59671 -1.36757 5099 ft 233 kts 315°
2026-04-15 12:36 37.60950 -1.37922 4963 ft 226 kts 342°
2026-04-15 12:37 37.62473 -1.38013 4876 ft 219 kts 13°
2026-04-15 12:37 37.63773 -1.37135 4815 ft 214 kts 39°
2026-04-15 12:37 37.64736 -1.35767 4737 ft 204 kts 47°
2026-04-15 12:37 37.65614 -1.34385 4517 ft 198 kts 48°
2026-04-15 12:38 37.66462 -1.33046 4325 ft 193 kts 47°
2026-04-15 12:38 37.67293 -1.31737 4098 ft 189 kts 48°
2026-04-15 12:38 37.68100 -1.30471 3899 ft 181 kts 48°
2026-04-15 12:38 37.68875 -1.29259 3729 ft 175 kts 48°
2026-04-15 12:39 37.69639 -1.28065 3553 ft 175 kts 48°
2026-04-15 12:39 37.70393 -1.26886 3390 ft 169 kts 48°
2026-04-15 12:39 37.71109 -1.25768 3219 ft 164 kts 46°
2026-04-15 12:39 37.71821 -1.24658 3070 ft 165 kts 45°
2026-04-15 12:40 37.72580 -1.23540 2831 ft 169 kts 45°
2026-04-15 12:40 37.73345 -1.22428 2592 ft 167 kts 45°
2026-04-15 12:40 37.74103 -1.21329 2345 ft 164 kts 45°
2026-04-15 12:40 37.74822 -1.20289 2140 ft 153 kts 44°
2026-04-15 12:41 37.75518 -1.19281 1904 ft 149 kts 45°
2026-04-15 12:41 37.76206 -1.18280 1671 ft 151 kts 44°
2026-04-15 12:41 37.76889 -1.17297 1470 ft 152 kts 46°
2026-04-15 12:41 37.77567 -1.16307 1305 ft 146 kts 47°
2026-04-15 12:42 37.78204 -1.15325 1048 ft 144 kts 52°
2026-04-15 12:42 37.78872 -1.14348 840 ft 149 kts 49°
2026-04-15 12:42 37.79580 -1.13416 664 ft 145 kts 47°
2026-04-15 12:42 37.80219 -1.12587 644 ft 112 kts 46°
2026-04-15 12:43 37.80663 -1.12022 643 ft 69 kts 45°
2026-04-15 12:43 37.80949 -1.11655 645 ft 53 kts 45°
2026-04-15 12:43 37.81170 -1.11369 648 ft 40 kts 46°
2026-04-15 12:43 37.81299 -1.11337 647 ft 19 kts 313°
2026-04-15 12:44 37.81335 -1.11469 650 ft 17 kts 232°
2026-04-15 12:44 37.81254 -1.11571 652 ft 16 kts 224°
2026-04-15 12:44 37.81174 -1.11675 649 ft 18 kts 225°
2026-04-15 12:44 37.81077 -1.11799 649 ft 23 kts 226°
2026-04-15 12:45 37.80953 -1.11958 645 ft 27 kts 225°
2026-04-15 12:45 37.80826 -1.12121 647 ft 25 kts 225°
2026-04-15 12:45 37.80708 -1.12272 649 ft 23 kts 225°
2026-04-15 12:45 37.80598 -1.12416 648 ft 22 kts 225°
2026-04-15 12:46 37.80490 -1.12554 648 ft 22 kts 225°
2026-04-15 12:46 37.80401 -1.12680 647 ft 16 kts 250°
2026-04-15 12:46 37.80455 -1.12798 646 ft 16 kts 298°
2026-04-15 12:46 37.80412 -1.12908 646 ft 10 kts 225°
2026-04-15 12:47 37.80397 -1.12965 646 ft 6 kts 302°
2026-04-15 12:47 37.80424 -1.13001 646 ft 4 kts 315°
2026-04-15 12:47 37.80434 -1.13014 646 ft 2 kts 315°
2026-04-15 12:47 37.80436 -1.13016 646 ft 0 kts 315°